www.pogodaiklimat.ru

Погода и климат >> Архив погоды >> Бельгия >> Gent


ПОГОДА в Gent

  • Прогноз погоды в Gent
  • Монитор погоды в Gent
  • Климат города

АРХИВ ПОГОДЫ в Gent

Время (UTC), дата Ветер
(напр.,м/с)
 
Видим.   Явления Облачность Т
(С)
Тd
(С)
f
(%)
Тe
(С)
Тes
(С)
Комфортность P
(гПа)
Po
(гПа)
Тmin
(С)
Tmax
(С)
R
(мм)
R24
(мм)
S
(см)
01 8.08 В 2 н/о н/о +21.1 +19.4 90 +26 +26 душно 1006.1 1004.9 0.3
02 8.08 ЮЗ 3 н/о н/о +21.4 +19.3 88 +26 +26 душно 1007.0 1005.8
05 8.08 ЮЗ 5
{9}
н/о н/о +20.0 +18.1 89 +23 +23 комфорт 1008.8 1007.6
04 8.08 ЮЗ 3 н/о н/о +21.8 +19.2 85 +27 +27 душно 1007.6 1006.4
06 8.08 ЮЗ 5
{9}
н/о н/о +20.0 +18.1 89 +23 +23 комфорт 1009.3 1008.1 +19.9 4
07 8.08 ЮЗ 6
{11}
н/о н/о +20.4 +17.9 86 +24 +24 комфорт 1009.9 1008.7
08 8.08 ЮЗ 7
{12}
н/о н/о +20.3 +16.0 76 +23 +23 комфорт 1011.0 1009.8
09 8.08 ЮЗ 8
{12}
н/о н/о +20.5 +14.6 69 +23 +23 комфорт 1011.6 1010.4
11 8.08 ЮЗ 6
{12}
н/о н/о +21.9 +14.2 62 +25 +25 комфорт 1013.2 1012.0
10 8.08 ЮЗ 6
{10}
н/о н/о +21.8 +14.6 64 +25 +25 комфорт 1012.5 1011.3
12 8.08 З 6
{10}
н/о н/о +22.0 +13.2 57 +25 +25 комфорт 1013.8 1012.6
13 8.08 З 6
{11}
н/о н/о +22.2 +13.0 56 +25 +25 комфорт 1014.4 1013.2
14 8.08 ЮЗ 5
{10}
н/о н/о +22.2 +12.5 54 +25 +25 комфорт 1014.8 1013.6
15 8.08 ЮЗ 5
{11}
н/о н/о +22.8 +13.3 55 +26 +26 жарко 1015.0 1013.8
17 8.08 ЮЗ 3
{6}
н/о н/о +22.4 +12.6 54 +25 +25 комфорт 1014.9 1013.7
16 8.08 ЮЗ 4
{11}
н/о н/о +22.9 +12.0 50 +25 +25 комфорт 1015.2 1014.0
18 8.08 ЮЗ 3
{11}
н/о н/о +23.0 +12.4 51 +26 +26 жарко 1015.2 1014.0 +23.8
19 8.08 З 2
{5}
н/о н/о +22.0 +12.9 56 +25 +25 комфорт 1015.2 1014.0
20 8.08 штиль 0
{3}
н/о н/о +19.4 +12.9 66 +21 +21 комфорт 1015.5 1014.3
21 8.08 штиль 0
{5}
н/о н/о +18.2 +13.4 74 +18 +18 1015.5 1014.3
23 8.08 Ю 1 н/о н/о +18.0 +12.6 71 +19 +19 1015.5 1014.3
22 8.08 ЮВ 1 н/о н/о +17.4 +12.9 75 +18 +18 1015.5 1014.3
00 9.08 СЗ 1 н/о н/о +18.3 +13.3 73 +20 +20 1015.3 1014.1
01 9.08 штиль 0
{3}
н/о н/о +18.3 +12.7 70 +19 +19 1014.9 1013.7
02 9.08 СВ 1 н/о н/о +18.1 +12.9 72 +19 +19 1014.2 1013.0
03 9.08 В 2
{4}
н/о н/о +18.5 +12.4 68 +20 +20 1014.0 1012.8
05 9.08 СВ 1
{4}
н/о н/о +17.2 +12.6 74 +18 +18 1013.4 1012.2
04 9.08 В 3 н/о н/о +18.2 +12.4 69 +19 +19 1013.7 1012.5
06 9.08 СВ 2
{5}
н/о н/о +18.0 +12.4 70 +19 +19 1012.9 1011.7 +17.1
07 9.08 СВ 2
{5}
н/о н/о +18.3 +12.9 71 +19 +19 1012.2 1011.0
08 9.08 СВ 2
{6}
н/о н/о +19.9 +13.9 68 +22 +22 комфорт 1011.7 1010.5
09 9.08 СВ 2
{6}
н/о н/о +20.5 +14.0 66 +24 +24 комфорт 1010.5 1009.3
11 9.08 СВ 3
{6}
н/о н/о +18.7 +16.6 88 +20 +20 1009.5 1008.3
10 9.08 В 3
{7}
н/о н/о +20.8 +15.8 73 +24 +24 комфорт 1010.0 1008.8
12 9.08 СВ 2
{7}
н/о н/о +17.4 +16.7 96 +18 +18 1008.4 1007.2 11
13 9.08 СВ 2
{4}
н/о н/о +17.6 +17.2 98 +18 +18 1007.9 1006.7 1
14 9.08 СВ 2
{5}
н/о н/о +17.9 +17.6 98 +18 +18 1006.8 1005.6
15 9.08 ЮЗ 1
{5}
н/о н/о +18.8 +18.6 99 +21 +21 комфорт 1006.5 1005.3 0.2
17 9.08 З 6
{13}
н/о н/о +17.7 +16.9 95 +17 +17 1009.2 1008.0
16 9.08 З 7
{11}
н/о н/о +18.1 +17.6 97 +18 +18 1007.2 1006.0
18 9.08 З 5
{9}
н/о н/о +17.1 +16.5 96 +16 +16 1010.4 1009.2 +21.4 2
19 9.08 З 5
{9}
н/о н/о +16.0 +15.7 98 +15 +15 1012.0 1010.8 3
20 9.08 З 7
{13}
н/о н/о +15.5 +15.1 97 +14 +14 1014.5 1013.2 0.8
21 9.08 З 5 н/о н/о +15.0 +14.4 96 +13 +13 1015.8 1014.5 0.4
23 9.08 ЮЗ 4 н/о н/о +13.9 +13.4 97 +12 +12 1018.0 1016.7
22 9.08 ЮЗ 3 н/о н/о +14.3 +13.7 96 +13 +13 1016.6 1015.3
00 10.08 ЮЗ 3 н/о н/о +13.9 +13.4 97 +13 +13 1018.6 1017.3
01 10.08 ЮЗ 2 н/о н/о +13.5 +13.0 97 +13 +13 1018.7 1017.4
02 10.08 Ю 2 н/о н/о +14.0 +13.1 94 +13 +13 1019.0 1017.7
03 10.08 Ю 3 н/о н/о +14.1 +13.3 95 +13 +13 1019.0 1017.7
05 10.08 ЮЗ 3
{7}
н/о н/о +14.1 +13.4 96 +13 +13 1019.8 1018.5
04 10.08 ЮЗ 3 н/о н/о +14.3 +13.5 95 +13 +13 1019.1 1017.8
06 10.08 ЮЗ 3
{7}
н/о н/о +14.2 +13.2 94 +13 +13 1020.3 1019.0 +13.5
07 10.08 ЮЗ 4
{7}
н/о н/о +15.1 +13.4 90 +14 +14 1020.7 1019.4
09 10.08 ЮЗ 5
{10}
н/о н/о +18.6 +14.0 75 +19 +19 1021.5 1020.3
10 10.08 ЮЗ 6
{9}
н/о н/о +18.6 +13.1 70 +19 +19 1021.7 1020.5
11 10.08 ЮЗ 4
{10}
н/о н/о +20.2 +13.1 64 +22 +22 комфорт 1021.6 1020.4
12 10.08 ЮЗ 4
{9}
н/о н/о +21.1 +13.2 61 +23 +23 комфорт 1021.5 1020.3
13 10.08 ЮЗ 6
{11}
н/о н/о +18.8 +13.7 72 +19 +19 1021.7 1020.5 0.2
14 10.08 ЮЗ 4
{11}
н/о н/о +21.7 +12.8 57 +24 +24 комфорт 1021.1 1019.9
15 10.08 ЮЗ 5
{11}
н/о н/о +22.6 +11.2 48 +25 +25 комфорт 1020.3 1019.1
16 10.08 ЮЗ 6
{11}
н/о н/о +22.0 +11.2 50 +24 +24 комфорт 1020.0 1018.8
17 10.08 ЮЗ 6
{12}
н/о н/о +19.9 +12.1 61 +21 +21 комфорт 1019.9 1018.7
18 10.08 ЮЗ 4
{8}
н/о н/о +19.4 +12.9 66 +21 +21 комфорт 1019.7 1018.5 +22.8
19 10.08 ЮЗ 5
{10}
н/о н/о +17.0 +14.0 82 +16 +16 1020.3 1019.0 0.3
20 10.08 ЮЗ 5
{8}
н/о н/о +16.7 +14.4 86 +16 +16 1020.2 1018.9 0.1
21 10.08 З 4 н/о н/о +14.7 +13.9 95 +13 +13 1020.2 1018.9 4
22 10.08 ЮЗ 4 н/о н/о +14.2 +13.6 96 +13 +13 1020.0 1018.7 5
23 10.08 ЮЗ 3 н/о н/о +13.9 +13.4 97 +13 +13 1020.9 1019.6 0.1
00 11.08 ЮЗ 4 н/о н/о +13.8 +13.3 97 +12 +12 1020.8 1019.5
01 11.08 З 3 н/о н/о +13.9 +13.4 97 +13 +13 1021.0 1019.7
02 11.08 З 3 н/о н/о +13.6 +13.1 97 +12 +12 1021.3 1020.0
03 11.08 З 3 н/о н/о +13.2 +12.8 97 +12 +12 1021.5 1020.2
04 11.08 З 3 н/о н/о +12.9 +12.5 97 +11 +11 1021.8 1020.5 0.1
05 11.08 ЮЗ 3
{4}
н/о н/о +12.9 +12.5 97 +11 +11 1022.2 1020.9
06 11.08 ЮЗ 3
{5}
н/о н/о +13.0 +12.4 96 +12 +12 1022.8 1021.5 +12.7
07 11.08 З 3
{5}
н/о н/о +14.5 +13.0 91 +14 +14 1023.3 1022.0
08 11.08 З 4
{5}
н/о н/о +16.6 +12.9 79 +16 +16 1023.9 1022.6
09 11.08 З 5
{7}
н/о н/о +17.5 +12.1 71 +17 +17 1024.2 1022.9
10 11.08 З 3
{7}
н/о н/о +18.8 +12.3 66 +20 +20 1024.1 1022.8
12 11.08 З 3
{7}
н/о н/о +20.3 +11.0 55 +22 +22 комфорт 1024.1 1022.9
14 11.08 ЮЗ 4
{7}
н/о н/о +22.0 +10.4 48 +24 +24 комфорт 1023.8 1022.6
13 11.08 З 4
{7}
н/о н/о +20.5 +10.7 53 +22 +22 комфорт 1023.9 1022.7
15 11.08 З 3
{7}
н/о н/о +21.6 +10.1 48 +23 +23 комфорт 1023.2 1022.0
16 11.08 З 3
{6}
н/о н/о +22.0 +10.8 49 +24 +24 комфорт 1022.8 1021.6
17 11.08 З 4
{6}
н/о н/о +22.1 +10.9 49 +24 +24 комфорт 1022.5 1021.3
18 11.08 З 2
{5}
н/о н/о +22.2 +10.3 47 +24 +24 комфорт 1022.1 1020.9 +22.7
20 11.08 С 2
{4}
н/о н/о +17.4 +12.5 73 +18 +18 1022.0 1020.7
19 11.08 С 2
{6}
н/о н/о +19.4 +12.6 65 +21 +21 комфорт 1021.9 1020.7
21 11.08 С 1 н/о н/о +16.3 +12.4 78 +17 +17 1021.5 1020.2
22 11.08 штиль 0 н/о н/о +16.3 +12.3 77 +16 +16 1021.0 1019.7
23 11.08 В 1 н/о н/о +16.4 +11.9 75 +17 +17 1020.6 1019.3
00 12.08 ЮВ 1 н/о н/о +17.1 +12.7 75 +18 +18 1020.0 1018.7
02 12.08 Ю 1 н/о н/о +18.2 +12.2 68 +20 +20 1018.7 1017.5
01 12.08 Ю 1 н/о н/о +17.9 +11.6 67 +19 +19 1019.3 1018.1
03 12.08 ЮВ 2 н/о н/о +17.9 +12.0 68 +18 +18 1017.9 1016.7
04 12.08 ЮВ 2 н/о н/о +17.5 +11.7 69 +18 +18 1017.0 1015.8
05 12.08 Ю 2
{5}
н/о н/о +18.0 +11.6 66 +19 +19 1016.8 1015.6
06 12.08 Ю 2
{6}
н/о н/о +18.7 +11.0 61 +20 +20 1016.5 1015.3 +16.0
08 12.08 Ю 4
{7}
н/о н/о +20.7 +11.3 55 +23 +23 комфорт 1016.0 1014.8
07 12.08 Ю 3
{7}
н/о н/о +19.0 +10.9 59 +20 +20 1016.5 1015.3
09 12.08 Ю 4
{9}
н/о н/о +23.3 +11.0 46 +26 +26 жарко 1015.6 1014.4
10 12.08 Ю 3
{8}
н/о н/о +25.2 +12.1 44 +27 +27 жарко 1015.4 1014.2
11 12.08 ЮЗ 4
{9}
н/о н/о +26.2 +13.4 45 +28 +28 жарко 1014.8 1013.6
12 12.08 Ю 3
{7}
н/о н/о +26.9 +12.1 40 +28 +28 жарко 1014.1 1012.9
14 12.08 ЮЗ 4
{8}
н/о н/о +28.7 +13.0 38 +30 +30 жарко 1012.6 1011.4
13 12.08 ЮЗ 3
{7}
н/о н/о +27.4 +13.8 43 +29 +29 жарко 1013.3 1012.1
15 12.08 Ю 4
{8}
н/о н/о +27.2 +12.3 40 +29 +29 жарко 1011.8 1010.6
16 12.08 Ю 3
{6}
н/о н/о +27.1 +13.5 43 +29 +29 жарко 1011.0 1009.8
17 12.08 Ю 2
{7}
н/о н/о +26.8 +13.6 44 +29 +29 жарко 1010.4 1009.2
18 12.08 Ю 1
{6}
н/о н/о +25.9 +13.6 47 +28 +28 жарко 1009.7 1008.5 +28.9
20 12.08 В 1
{2}
н/о н/о +24.0 +14.7 56 +27 +27 жарко 1009.2 1008.0
19 12.08 ЮЗ 2
{4}
н/о н/о +24.8 +14.4 52 +27 +27 жарко 1009.5 1008.3
21 12.08 Ю 2 н/о н/о +24.7 +14.1 52 +27 +27 жарко 1008.7 1007.5
22 12.08 СЗ 1 н/о н/о +22.5 +16.1 67 +27 +27 душно 1008.4 1007.2
23 12.08 СЗ 2 н/о н/о +20.8 +16.7 77 +25 +25 комфорт 1008.7 1007.5
00 13.08 З 2 н/о н/о +19.9 +17.2 84 +23 +23 комфорт 1008.3 1007.1 0.1
02 13.08 ЮВ 1 н/о н/о +19.1 +17.2 89 +22 +22 комфорт 1006.8 1005.6
01 13.08 З 1 н/о н/о +19.3 +17.1 87 +22 +22 комфорт 1007.6 1006.4
03 13.08 ЮЗ 1 н/о н/о +18.9 +16.9 88 +21 +21 комфорт 1006.4 1005.2
04 13.08 ЮВ 1 н/о н/о +18.9 +16.9 88 +21 +21 комфорт 1006.2 1005.0 0.1
05 13.08 Ю 2
{7}
н/о н/о +18.5 +17.5 94 +20 +20 1006.3 1005.1 1
06 13.08 ЮЗ 4
{6}
н/о н/о +18.0 +17.4 96 +18 +18 1006.6 1005.4 +18.0 1
08 13.08 ЮЗ 4
{6}
н/о н/о +18.7 +17.8 95 +20 +20 1006.4 1005.2
07 13.08 Ю 2
{6}
н/о н/о +18.1 +17.6 97 +19 +19 1006.0 1004.8
09 13.08 ЮЗ 3
{6}
н/о н/о +19.2 +17.9 92 +21 +21 комфорт 1006.6 1005.4
10 13.08 З 5
{8}
н/о н/о +20.4 +17.7 84 +24 +24 комфорт 1006.6 1005.4
11 13.08 З 6
{9}
н/о н/о +21.3 +16.5 74 +25 +25 комфорт 1006.9 1005.7
12 13.08 ЮЗ 5
{9}
н/о н/о +21.7 +16.5 72 +26 +26 душно 1007.0 1005.8
14 13.08 ЮЗ 4
{8}
н/о н/о +19.6 +17.4 87 +22 +22 комфорт 1007.5 1006.3 0.1
13 13.08 З 5
{9}
н/о н/о +21.1 +17.0 77 +25 +25 комфорт 1007.3 1006.1
15 13.08 З 5
{6}
н/о н/о +20.3 +17.3 83 +23 +23 комфорт 1007.5 1006.3
16 13.08 СЗ 5
{6}
н/о н/о +22.1 +16.9 72 +26 +26 душно 1007.4 1006.2
17 13.08 З 6
{9}
н/о н/о +22.2 +16.4 70 +26 +26 душно 1007.8 1006.6
18 13.08 З 5
{8}
н/о н/о +21.4 +16.8 75 +25 +25 комфорт 1008.3 1007.1 +22.4
20 13.08 ЮЗ 3
{5}
н/о н/о +19.3 +17.1 87 +21 +21 комфорт 1009.1 1007.9
19 13.08 З 4
{8}
н/о н/о +20.4 +16.6 79 +24 +24 комфорт 1008.7 1007.5
21 13.08 ЮЗ 4 н/о н/о +18.6 +17.0 90 +19 +19 1009.5 1008.3
22 13.08 ЮЗ 4 н/о н/о +17.9 +16.8 93 +18 +18 1009.9 1008.7
23 13.08 ЮЗ 3 н/о н/о +17.4 +16.6 95 +17 +17 1010.4 1009.2
00 14.08 ЮЗ 3 н/о н/о +17.1 +16.5 96 +17 +17 1010.9 1009.7
02 14.08 ЮЗ 3 н/о н/о +17.5 +17.0 97 +17 +17 1011.2 1010.0
01 14.08 ЮЗ 3 н/о н/о +17.2 +16.7 97 +17 +17 1010.9 1009.7
03 14.08 З 3 н/о н/о +17.5 +17.1 98 +17 +17 1011.7 1010.5
04 14.08 З 3 н/о н/о +17.3 +16.9 97 +17 +17 1012.2 1011.0
05 14.08 З 3
{4}
н/о н/о +17.5 +17.2 98 +17 +17 1012.7 1011.5
06 14.08 З 2
{4}
н/о н/о +17.9 +17.5 98 +18 +18 1013.5 1012.3 +17.1
08 14.08 З 2
{4}
н/о н/о +18.4 +18.0 98 +20 +20 1014.9 1013.7 0.9
07 14.08 ЮЗ 3
{5}
н/о н/о +18.2 +17.8 98 +19 +19 1014.2 1013.0
09 14.08 СЗ 3
{6}
н/о н/о +17.9 +17.5 98 +18 +18 1015.5 1014.3 4
10 14.08 З 4
{6}
н/о н/о +18.9 +18.5 98 +20 +20 1016.0 1014.8 0.2
11 14.08 З 5
{8}
н/о н/о +20.7 +18.0 85 +25 +25 комфорт 1016.2 1015.0
12 14.08 З 6
{8}
н/о н/о +21.7 +17.5 77 +26 +26 душно 1016.7 1015.5
14 14.08 З 7
{10}
н/о н/о +22.3 +15.0 63 +26 +26 жарко 1017.7 1016.5
13 14.08 З 6
{10}
н/о н/о +21.7 +16.7 73 +26 +26 душно 1017.1 1015.9
15 14.08 З 6
{9}
н/о н/о +22.0 +14.4 62 +25 +25 комфорт 1017.8 1016.6
16 14.08 З 6
{9}
н/о н/о +21.3 +14.8 66 +24 +24 комфорт 1018.0 1016.8
17 14.08 З 5
{7}
н/о н/о +21.0 +15.1 69 +24 +24 комфорт 1018.1 1016.9
18 14.08 З 4
{6}
н/о н/о +20.6 +14.6 68 +23 +23 комфорт 1018.1 1016.9 +22.4
20 14.08 ЮЗ 2
{4}
н/о н/о +19.6 +15.1 75 +22 +22 комфорт 1018.6 1017.4
19 14.08 З 2
{5}
н/о н/о +20.3 +14.9 71 +23 +23 комфорт 1018.2 1017.0
21 14.08 ЮЗ 2 н/о н/о +18.7 +15.5 82 +20 +20 1018.8 1017.6
22 14.08 ЮЗ 4 н/о н/о +18.5 +15.4 82 +19 +19 1018.9 1017.7
23 14.08 ЮЗ 3 н/о н/о +18.2 +15.7 85 +19 +19 1019.0 1017.8
00 15.08 ЮЗ 3 н/о н/о +18.3 +15.8 85 +19 +19 1019.0 1017.8

 

Местоположение метеостанции Gent (Бельгия): широта 51.18 долгота 3.82 высота над уровнем моря 13 м.

В архиве по умолчанию представлена погода в Gent за последнюю неделю. Архивные данные за месяц целиком и за предыдущие месяцы, начиная с января 2011 года, Вы можете получить, выбрав интересующий диапазон дат из раскрывающегося списка и нажав кнопку "Ввод!".


*Определитесь, кто Вы:
робот инопланетянин человек

Внимание! Время в таблицах - всемирное. Для получения местного времени необходимо прибавить поправку, которая в Gent равна 1 ч.

Смотрите также архив погоды в соседних городах и на ближайших метеорологических станциях:

Погода в Westdorpe (Нидерланды) (7 км)
Погода в Melle (Бельгия) (22 км)
Погода в Hoofdplaat (Нидерланды) (25 км)
Погода в Semmerzake (Бельгия) (30 км)
Погода в Hansweert (Нидерланды) (33 км)
Погода в Vlissingen (Нидерланды) (34 км)
Погода в Cadzand (Нидерланды) (38 км)
Погода в Wilhelminadorp (Нидерланды) (39 км)
Погода в Tholen (Нидерланды) (43 км)
Погода в Antwerpen (Бельгия) (45 км)

Пояснения к столбцам:

Ветер - указаны скорость ветра в м/с - средняя за 10 мин, порывы в срок и между сроками (в фигурных скобках) и направление, откуда дует ветер: С - северный, СВ - северо-восточный, В - восточный, ЮВ - юго-восточный, Ю - южный, ЮЗ - юго-западный, З - западный, СЗ - северо-западный.
Видимость - горизонтальная дальность видимости в метрах или километрах. При видимости от 1 до 10 км при отсутствии осадков обычно наблюдается дымка, при ухудшении видимости до 1 км и менее - туман. В сухую погоду видимость может ухудшаться дымом, пылью или мглою.
Явления - указаны атмосферные явления, наблюдавшиеся в срок или в последний час перед сроком; фигурными скобками обозначены явления, наблюдавшиеся между сроками (за 1-3 часа до срока); квадратными скобками обозначены град или гололедные отложения с указанием их диаметра в мм.
Облачность - указаны через наклонную черту общая и нижняя облачность в баллах и высота нижней границы облаков в метрах; квадратными скобками обозначены формы облаков: Ci - перистые, Cs - перисто-слоистые, Cc - перисто-кучевые, Ac - высококучевые, As - высокослоистые, Sc - слоисто-кучевые, Ns - слоисто-дождевые, Cu - кучевые, Cb - кучево-дождевые. Подробнее классификацию облаков см. в Атласе облаков (PDF).
T - Температура воздуха - температура, измеренная на высоте 2 м над землей.
Td - Температура точки росы - температура, при понижении до которой содержащийся в воздухе водяной пар достигнет насыщения.
f - Относительная влажность воздуха - влажноcть воздуха, измеренная на высоте 2 м над землей.
Te - Эффективная температура - температура, которую ощущает одетый по сезону человек в тени. Характеристика душности погоды. При расчете учитывается влияние влажности воздуха и скорости ветра на теплоощущения человека.
Tes - Эффективная температура на солнце - температура, которую ощущает человек, с поправкой на солнечный нагрев. Характеристика знойности погоды. Зависит от высоты солнца над горизонтом, облачности и скорости ветра. Ночью, в пасмурную погоду, а также при ветре 12 м/с и более поправка равна нулю.
P - Атмосферное давление - приведенное к уровню моря атмосферное давление.
Po - Атмосферное давление - измеренное на уровне метеостанции атмосферное давление.
Tmin - Минимальная температура - минимум температуры воздуха на высоте 2 м над землей.
Tmax - Максимальная температура - максимум температуры воздуха на высоте 2 м над землей.
R - Количество осадков - Количество выпавших осадков за период времени, мм. При наведении курсора мыши на число - период времени, за который выпало указанное количество осадков.
R24 - Количество осадков - Количество выпавших осадков за 24 часа, мм.
S - Снежный покров - Высота снежного покрова, см. При наведении курсора мыши на число - состояние снежного покрова и степень покрытия местности в баллах.